Miscellaneous Local Product
Issued by NWS North Platte, NE

Home | Current Version | Previous Version | Text Only | Print | Product List | Glossary On
Versions: 1 2 3 4 5 6 7 8 9 10 11 12 13 14 15 16 17 18 19 20 21 22 23 24 25 26 27 28 29 30 31 32 33 34 35 36 37 38 39 40 41 42 43 44 45 46 47 48 49 50
666
AXUS43 KLBF 202010
MISLBF


WESTERN AND NORTH CENTRAL NEBRASKA HOURLY WEATHER ROUNDUP
NATIONAL WEATHER SERVICE NORTH PLATTE NE
300 PM CDT THU JUL 20 2017

NOTE: "FAIR" INDICATES FEW OR NO CLOUDS BELOW 12,000 FEET WITH NO
SIGNIFICANT WEATHER AND/OR OBSTRUCTIONS TO VISIBILITY.

NOTE: STATIONS NOT REPORTING VARIABLES SUCH AS SKY/WEATHER OR
PRESSURE ARE PROVIDED BY RAWS AND APRS NETWORKS AND ARE NOT UNDER
NATIONAL WEATHER SERVICE QUALITY CONTROL.

...OBSERVATIONS IN AND NEAR THE EASTERN PANHANDLE OF NEBRASKA...

CITY           SKY/WX    TMP DP  RH WIND       PRES   REMARKS
PINE RIDGE     SUNNY     90  62  39 SE5       30.05F HX  90
GORDON         FAIR      87  64  46 SE8       30.08F
CHADRON        SUNNY     92  55  28 S10G23    30.03F HX  90
ALLIANCE       SUNNY     87  58  37 VRB5      30.09F
SIDNEY         SUNNY     92  56  29 NE9G20    30.12F HX  90
CRESCENT LAKE    N/A     90  61  37 E6G13       N/A  HX  90
$$

...OBSERVATIONS IN NORTHERN NEBRASKA AND FAR SOUTHERN SOUTH DAKOTA...

CITY           SKY/WX    TMP DP  RH WIND       PRES   REMARKS
WINNER         FAIR      96  66  37 VRB6      29.99F HX  99
VALENTINE      SUNNY     98  56  24 NE6       30.00F HX  96
THEDFORD       PTSUNNY   88  63  43 E10       30.06F
AINSWORTH      PTSUNNY   87  65  47 SE10      30.04F
O`NEILL        CLOUDY    82  74  76 CALM      30.04S
ORD            CLOUDY    88  66  48 E10       29.99F HX  90
BROKEN BOW     PTSUNNY   88  67  49 E16       30.01F HX  91
VALENTINE NWR    N/A     89  68  49 SE6         N/A  HX  92
HALSEY           N/A     88  64  44 E9          N/A
BUTTE            N/A     87  72  60 SE12        N/A  HX  93
CHAMBERS         N/A     90  72  54 CALM        N/A  HX  96
EWING            N/A     83  76  80 NE3         N/A  HX  91
$$

...OBSERVATIONS IN SOUTHWEST NEBRASKA AND FAR NORTHEAST COLORADO...

CITY           SKY/WX    TMP DP  RH WIND       PRES   REMARKS
HOLYOKE        FAIR      95  61  31 E9        30.07F HX  95
IMPERIAL       SUNNY     97  53  22 VRB6      30.00F HX  94
OGALLALA       SUNNY     90  61  37 E12       30.06F HX  90
NORTH PLATTE   SUNNY     93  68  43 E14       30.01F HX  97
MCCOOK         MOSUNNY   98  64  32 E10       29.96F HX 100
LEXINGTON      MOSUNNY   87  72  60 E7        30.01S HX  93
STAPLETON        N/A     88  67  50 E6G17       N/A  HX  91
GOTHENBURG       N/A     86  65  49 E10         N/A
CALLAWAY         N/A     88  70  55 E16         N/A  HX  93
$$

...OBSERVATIONS IN CENTRAL LINCOLN COUNTY AREA...

CITY           SKY/WX    TMP DP  RH WIND       PRES   REMARKS
N.P. AIRPORT   SUNNY     93  68  43 E14       30.01F HX  97
N.P. DOWNTOWN    N/A     90  68  48 SE3G12      N/A  HX  94
N.P. SOUTHEAST   N/A     90  68  48 E5G13       N/A  HX  94
N.P. HILLCREST   N/A     89  66  46 E12G20      N/A  HX  91
$$

...SOME OBSERVATIONS FROM AROUND THE REGION...

CITY           SKY/WX    TMP DP  RH WIND       PRES   REMARKS
DENVER         MOSUNNY   92  51  24 SE3       30.16F
LIMON          SUNNY     88  53  30 VRB3      30.17F
ASPEN          CLOUDY    80  47  31 SW17G26   30.35F THUNDER
LARAMIE        CLOUDY    81  46  29 NW12      30.30F
CASPER         SUNNY     92  47  21 S10G22    30.10F
CHEYENNE       SUNNY     89  48  24 SE6       30.22F
SCOTTSBLUFF    SUNNY     89  63  41 E13G20    30.09F HX  90
GRAND ISLAND   MOSUNNY   88  74  63 SE9       29.99F HX  96
OMAHA          MOSUNNY   97  72  44 SE5       29.95R HX 105
SIOUX FALLS    CLOUDY    86  72  62 E9        30.01F HX  92
RAPID CITY     SUNNY     97  57  26 S18G26    29.99F HX  96
BISMARCK       SUNNY     94  56  27 S15G25    29.94F HX  92
KANSAS CITY    MOSUNNY   96  76  52 SW12      30.00F HX 109
HILL CITY      SUNNY    104  59  22 S10       29.95F HX 104
WICHITA        MOSUNNY  102  64  28 S17G23    29.98F HX 105
DODGE CITY     SUNNY    101  54  20 S21G26    30.02F HX  99
OKLAHOMA CITY  MOSUNNY  100  63  29 S14G20    30.03F HX 102
DALLAS         MOSUNNY   98  68  37 S9        30.03F HX 103
AMARILLO       MOSUNNY   91  56  30 S16G23    30.14F
$$




USA.gov is the U.S. government's official web portal to all federal, state and local government web resources and services.